Starlink 30130

operational
NORAD ID: 56697 Int'l Des: 2023-067 Owner: SPXS Country: US Constellation: starlink
LEOCIRCULAR

Über Starlink 30130

Beschreibung wird geladen...

Live-Position

3D-Globus wird geladen...

Nächste Überflüge

Höhenverlauf

Altitude vs Time

uPlot chart will show altitude changes over time

Zweizeiliger Elementsatz

1 56697U 23067K 25352.33090066 -.00005674 00000-0 -40499-3 0 9998
2 56697 43.0032 356.3605 0001407 278.7041 81.3642 15.02560593143161
Epoch: 18. Dez. 2025 • Age: 15 hours

Aktueller Status

Höhe 568.6 km
Geschwindigkeit 7.58 km/s
Subsatellitenpunkt -35.54°S, 144.34°E
Startdatum 19. Mai 2023
Alter 2.5 years
Typ internet

Technische Details

Klassifizierung Payload
Masse 730.00 kg
Trockenmasse 700.00 kg
Gesamtmasse 730.00 kg
Länge 0.30 m
Durchmesser 4.10 m
Spannweite 29.00 m
Form Box + pan
Hersteller SPXS
Bus-Typ Starlink V2M
Phasenstatus In Orbit
Besitzer/Staat SPXS/US

Große Konstellationen

Loading constellations...